Regional Weather Roundup
Issued by NWS

Home | Current Version | Previous Version | Text Only | Print | Product List | Glossary On
Versions: 1 2 3 4 5 6 7 8 9 10 11 12 13 14 15 16 17 18 19 20 21 22 23 24 25 26 27 28 29 30 31 32 33 34 35 36 37 38 39 40 41 42 43 44 45 46 47 48 49 50
000
ASUS45 KBOU 240810
RWRCO

WEATHER ROUNDUP FOR COLORADO
NATIONAL WEATHER SERVICE PUEBLO CO
100 AM MST SAT FEB 24 2018

NOTE: "FAIR" INDICATES FEW OR NO CLOUDS BELOW 12000 FEET WITH NO
SIGNIFICANT WEATHER AND/OR OBSTRUCTIONS TO VISIBILITY.

COZ001>005-013-030-031-240900-
...NORTHWEST COLORADO...

CITY           SKY/WX    TMP DP  RH WIND       PRES   REMARKS
CRAIG          LGT SNOW  15   9  76 W5        29.95R WCI   8
HAYDEN         LGT SNOW  14  10  84 W12       29.93R FOG     WCI   0
MEEKER         FLURRIES  18  12  77 W5        29.93R WCI  11
RABBIT EARS PA NOT AVBL
STEAMBOAT SPGS CLOUDY    15  12  90 S6        29.89R WCI   6
WALDEN         FAIR      12   3  67 W9        29.79F WCI   0
$$

COZ006>008-011-240900-
...WEST CENTRAL VALLEYS...

CITY           SKY/WX    TMP DP  RH WIND       PRES   REMARKS
GRAND JUNCTION CLOUDY    27  23  85 W8        29.97S WCI  19
MONTROSE       CLOUDY    19  18  95 SE5       29.97S WCI  12
EAGLE          CLOUDY    24  16  71 W8        29.89S WCI  15
RIFLE          CLOUDY    23  21  92 W5        29.95R WCI  17
DELTA          NOT AVBL
NUCLA          CLOUDY    18  16  93 E7        30.00S WCI   8
$$

COZ017>023-064>068-240900-
...SOUTHWEST COLORADO...

CITY           SKY/WX    TMP DP  RH WIND       PRES   REMARKS
DURANGO        CLEAR     20  15  81 SW9       29.89F WCI   9
CORTEZ         MOCLDY    17  15  92 NE5       29.97S WCI  10
PAGOSA SPRINGS FLURRIES  21  19  92 W6        29.87F WCI  14
TELLURIDE      LGT SNOW  13  11  90 W10       29.87R VSB 3/4 WCI   0
WOLF CREEK PAS CLOUDY     3   3 100 S18G29    29.77S WCI -17
$$

COZ009-010-012-014-032>034-037-058>063-240900-
...CENTRAL COLORADO...

CITY           SKY/WX    TMP DP  RH WIND       PRES   REMARKS
ASPEN          LGT SNOW  18  14  84 N5        29.82S FOG     WCI  11
BUENA VISTA    MOCLDY    21   6  51 CALM      29.76F
COPPER MTN     LGT SNOW   5   0  78 W17       29.67F WCI -14
BERTHOUD PASS  LGT SNOW   0 -13  55 NW24      29.64F WCI -24
COTTONWOOD PAS CLOUDY    21   7  53 W17G25    29.72F WCI   7
GUNNISON       MOCLDY    19  12  74 SW8       29.83F WCI   9
KREMMLING      MOCLDY    23  12  63 NW5       29.84S WCI  17
LEADVILLE      CLOUDY     7   3  84 N7        29.72F WCI  -5
MONARCH PASS   LGT SNOW   3   0  85 SW23      29.78F WCI -19
SALIDA         FAIR      24   8  52 W8        29.86S WCI  14
SUNLIGHT       LGT SNOW   5   1  85 W12G20    29.80S VSB 1   WCI -11
WILKERSON PASS CLOUDY     9   5  85 SW12G18   29.71F WCI  -6
$$

COZ069>075-240900-
...SAN LUIS VALLEY/SANGRE DE CRISTO MOUNTAINS...

CITY           SKY/WX    TMP DP  RH WIND       PRES   REMARKS
ALAMOSA        MOCLDY    21  10  62 SW14      29.79F WCI   8
DEL NORTE      FLURRIES  20  17  86 SW6       29.81F WCI  13
LA VETA PASS   CLOUDY    16  10  79 SW20G36   29.82F WCI  -1
SAGUACHE       PTCLDY    19  12  73 N14       29.80R WCI   6
$$

COZ035-036-038>040-240900-
...NORTHERN COLORADO FRONT RANGE...

CITY           SKY/WX    TMP DP  RH WIND       PRES   REMARKS
DENVER INTL AP CLOUDY    25  21  85 SW10      29.81F FOG     WCI  15
DMNS CITY PARK NOT AVBL
AURORA         CLOUDY    24  24  99 W6        29.82F WCI  17
FRONT RANGE AP CLOUDY    27  24  90 W9        29.81F FOG     WCI  18
ERIE MUNI ARPT CLOUDY    25  23  91 N3        29.90S
BOULDER MUN AP CLOUDY    27  25  93 N5        29.84F WCI  21
CENTENNIAL     CLOUDY    24  22  91 N8        29.82S FOG     WCI  15
BROOMFIELD     NOT AVBL
LOVELAND       CLOUDY    25  21  86 NE8       29.85F WCI  16
LONGMONT       CLOUDY    27  23  85 E5        29.88S WCI  22
$$

COZ041-046-047-076>085-087-088-240900-
...PIKES PEAK/PALMER DIVIDE AND SOUTHERN FOOTHILLS...

CITY           SKY/WX    TMP DP  RH WIND       PRES   REMARKS
COLO. SPRINGS  CLOUDY    21  20  96 S7        29.82S FOG     WCI  12
A. F. ACADEMY  CLOUDY    21  19  92 CALM      29.79S
SCHRIEVER AFB  NOT AVBL
CHEYENNE MTN   NOT AVBL
ELLICOTT         N/A    N/A N/A N/A S7        29.81S
FALCON         CLOUDY    20  19  95 SW6       29.80R WCI  12
FORT CARSON    CLOUDY    22  21  94 SE8       29.82S WCI  13
LIMON          LGT SNOW  22  22 100 S8        29.84S FOG     WCI  12
MONUMENT HILL  CLOUDY    21  18  86 W8        29.79S WCI  12
CANON CITY     CLOUDY    27  25  93 SE7       29.85S WCI  19
WALSENBURG     CLOUDY    25  25 100 E3        29.82S VSB 3/4
TRINIDAD       CLOUDY    24  23  96 CALM      29.84F
$$

COZ042>045-048>051-090-091-240900-
...NORTHEAST COLORADO...

CITY           SKY/WX    TMP DP  RH WIND       PRES   REMARKS
GREELEY ARPT   MOCLDY    23  21  92 NE7       29.86F WCI  15
AKRON          LGT SNOW  24  23  96 S9        29.85F FOG     WCI  14
BURLINGTON     CLOUDY    23  22  96 S8        29.91F FOG     WCI  14
WRAY           LGT SNOW  25  23  93 E12       29.94F WCI  14
YUMA           NOT AVBL
STERLING       CLOUDY    27  23  86 E7        29.88F WCI  19
HOLYOKE        FOG       25  23  93 E13       29.92F VSB 3/4 WCI  13
FORT MORGAN    CLOUDY    26  23  89 NE6       29.86F WCI  19
$$

COZ086-089-092>099-240900-
...SOUTHEAST COLORADO...

CITY           SKY/WX    TMP DP  RH WIND       PRES   REMARKS
PUEBLO         CLOUDY    26  24  92 SE6       29.88F WCI  19
LA JUNTA       CLOUDY    26  24  92 E12       29.89S FOG     WCI  16
LAMAR          CLOUDY    26  24  92 E9        29.91F FOG     WCI  17
SPRINGFIELD      N/A     25  25 100 E5        29.89R WCI  19
$$




USA.gov is the U.S. government's official web portal to all federal, state and local government web resources and services.